Starlink 1294

operational
NORAD ID: 45551 Int'l Des: 2020-025 Owner: SPXS Country: US Constellation: starlink
LEOCIRCULAR

Starlink 1294について

説明を読み込み中...

リアルタイム位置

3D地球を読み込み中...

次回通過

高度履歴

Altitude vs Time

uPlot chart will show altitude changes over time

軌道要素

1 45551U 20025W 26034.33336806 .00310494 00000-0 12253-2 0 9992
2 45551 53.0350 150.7007 0006568 328.8345 352.6852 15.85440825 6005
Epoch: Feb 3, 2026 • Age: 8 hours

現在のステータス

高度 319.2 km
速度 7.72 km/s
衛星直下点 -0.75°S, 51.69°W
打ち上げ日 Apr 22, 2020
運用期間 5.7 years
タイプ internet

技術仕様

分類 Payload
質量 260.00 kg
乾燥質量 248.00 kg
総質量 260.00 kg
長さ 0.20 m
直径 2.80 m
スパン 9.00 m
形状 Box + pan
製造者 SPXS
バスタイプ Starlink
フェーズステータス In Orbit
所有者/国 SPXS/US

大規模コンステレーション

Loading constellations...